This is the latest recevied weather packets stored in our database for station/object K7FRY. If no packets are shown the sender has not sent any weather packets the latest 10 day(s).
| Time | Temp. | Humidity | Pressure | Rain* | Wind** | Luminosity | Snow |
|---|---|---|---|---|---|---|---|
| 1778011989 | 23.33° C | 48% | 1012.3 hPa | 0 mm | - | 823 W/m² | - |
| 1778011688 | 23.33° C | 48% | 1012 hPa | 0 mm | - | 834 W/m² | - |
| 1778011384 | 23.33° C | 47% | 1012.2 hPa | 0 mm | - | 850 W/m² | - |
| 1778011079 | 24.44° C | 48% | 1012.2 hPa | 0 mm | - | 902 W/m² | - |
| 1778010777 | 23.89° C | 48% | 1012.4 hPa | 0 mm | - | 960 W/m² | - |
| 1778010474 | 22.78° C | 48% | 1012.5 hPa | 0 mm | - | 643 W/m² | - |
| 1778010171 | 22.78° C | 49% | 1012.4 hPa | 0 mm | - | 280 W/m² | - |
| 1778009866 | 23.33° C | 48% | 1012.6 hPa | 0 mm | - | 204 W/m² | - |
| 1778009564 | 22.78° C | 49% | 1012.3 hPa | 0 mm | - | 918 W/m² | - |
| 1778009262 | 22.78° C | 51% | 1012.6 hPa | 0 mm | - | 832 W/m² | - |
| 1778008960 | 21.67° C | 53% | 1012.5 hPa | 0 mm | - | 869 W/m² | - |
| 1778008658 | 21.67° C | 55% | 1012.6 hPa | 0 mm | - | 203 W/m² | - |
| 1778008356 | 21.67° C | 54% | 1013.1 hPa | 0 mm | - | 946 W/m² | - |
| 1778008052 | 20.56° C | 56% | 1013.1 hPa | 0 mm | - | 698 W/m² | - |
| 1778007752 | 20.56° C | 58% | 1013.2 hPa | 0 mm | - | 285 W/m² | - |
| 1778007448 | 20.56° C | 59% | 1013.2 hPa | 0 mm | - | 164 W/m² | - |
| 1778007145 | 21.67° C | 59% | 1013.4 hPa | 0 mm | - | 268 W/m² | - |
| 1778006841 | 20.56° C | 61% | 1013.5 hPa | 0 mm | - | 1010 W/m² | - |
| 1778006539 | 20.56° C | 61% | 1013.5 hPa | 0 mm | - | 241 W/m² | - |
| 1778006235 | 20.56° C | 61% | 1013.3 hPa | 0 mm | - | 964 W/m² | - |
| 1778005933 | 20.56° C | 61% | 1013.5 hPa | 0 mm | - | 913 W/m² | - |
| 1778005629 | 20° C | 65% | 1013.3 hPa | 0 mm | - | 335 W/m² | - |
| 1778005326 | 19.44° C | 66% | 1013.5 hPa | 0 mm | - | 290 W/m² | - |
| 1778005023 | 20° C | 68% | 1013.9 hPa | 0 mm | - | 297 W/m² | - |
| 1778004721 | 19.44° C | 68% | 1013.8 hPa | 0 mm | - | 241 W/m² | - |
* Rain latest hour (hover to see other rain measurements)
** Current wind speed in m/s (hover to see current wind gust speed)